KLM1759 EHAM-EDDH

Flight info

Callsign KLM1759
Flight time 0h 40m
Altitude 31000
Route ANDIK N873 GRONY DCT RIBSO RIBSO7A
Aircraft B739/M-SDE2E3FGHIRWXY/LB1

Departure

Time 2026-05-07 14:39
Airport Amsterdam Airport Schiphol (EHAM)

Arrival

Time 2026-05-07 15:20
Airport Hamburg Helmut Schmidt Airport (EDDH)
Time Latitude Longitude Altitude Speed Heading
2026-05-07 13:19 52.30804 4.76718 -3 ft 0 kts 343°
2026-05-07 14:06 52.30801 4.76720 -3 ft 2 kts 343°
2026-05-07 14:06 52.30785 4.76727 -3 ft 2 kts 343°
2026-05-07 14:06 52.30770 4.76735 -3 ft 2 kts 343°
2026-05-07 14:06 52.30754 4.76743 -3 ft 2 kts 342°
2026-05-07 14:07 52.30738 4.76751 -3 ft 2 kts 342°
2026-05-07 14:07 52.30723 4.76759 -3 ft 1 kts 342°
2026-05-07 14:08 52.30721 4.76760 -3 ft 2 kts 342°
2026-05-07 14:08 52.30711 4.76765 -3 ft 0 kts 342°
2026-05-07 14:10 52.30712 4.76765 -3 ft 0 kts 342°
2026-05-07 14:10 52.30712 4.76764 -3 ft 0 kts 342°
2026-05-07 14:12 52.30713 4.76764 -3 ft 0 kts 342°
2026-05-07 14:14 52.30714 4.76764 -3 ft 0 kts 341°
2026-05-07 14:15 52.30714 4.76763 -3 ft 0 kts 340°
2026-05-07 14:15 52.30714 4.76762 -3 ft 0 kts 327°
2026-05-07 14:15 52.30715 4.76761 -3 ft 0 kts 320°
2026-05-07 14:16 52.30715 4.76760 -3 ft 0 kts 313°
2026-05-07 14:16 52.30715 4.76759 -3 ft 0 kts 305°
2026-05-07 14:16 52.30715 4.76758 -3 ft 0 kts 298°
2026-05-07 14:16 52.30715 4.76756 -3 ft 0 kts 291°
2026-05-07 14:17 52.30714 4.76755 -3 ft 0 kts 282°
2026-05-07 14:17 52.30714 4.76753 -3 ft 0 kts 277°
2026-05-07 14:17 52.30714 4.76750 -3 ft 0 kts 273°
2026-05-07 14:17 52.30714 4.76747 -3 ft 0 kts 270°
2026-05-07 14:18 52.30714 4.76744 -3 ft 0 kts 270°
2026-05-07 14:18 52.30714 4.76743 -3 ft 0 kts 267°
2026-05-07 14:18 52.30714 4.76742 -3 ft 0 kts 267°
2026-05-07 14:18 52.30714 4.76740 -3 ft 0 kts 267°
2026-05-07 14:19 52.30712 4.76728 -3 ft 6 kts 250°
2026-05-07 14:20 52.30660 4.76744 -3 ft 7 kts 145°
2026-05-07 14:20 52.30640 4.76768 -3 ft 0 kts 141°
2026-05-07 14:21 52.30639 4.76770 -3 ft 1 kts 141°
2026-05-07 14:21 52.30625 4.76792 -3 ft 4 kts 132°
2026-05-07 14:21 52.30604 4.76847 -3 ft 7 kts 122°
2026-05-07 14:21 52.30564 4.76911 -3 ft 9 kts 144°
2026-05-07 14:22 52.30534 4.76946 -3 ft 0 kts 143°
2026-05-07 14:23 52.30533 4.76949 -3 ft 1 kts 143°
2026-05-07 14:23 52.30519 4.76965 -3 ft 4 kts 143°
2026-05-07 14:23 52.30500 4.77008 -4 ft 6 kts 105°
2026-05-07 14:23 52.30505 4.77077 -4 ft 7 kts 70°
2026-05-07 14:24 52.30534 4.77151 -4 ft 9 kts 56°
2026-05-07 14:24 52.30558 4.77208 -4 ft 6 kts 54°
2026-05-07 14:24 52.30575 4.77275 -4 ft 7 kts 92°
2026-05-07 14:24 52.30556 4.77339 -4 ft 7 kts 152°
2026-05-07 14:25 52.30507 4.77378 -4 ft 9 kts 154°
2026-05-07 14:25 52.30490 4.77392 -4 ft 0 kts 158°
2026-05-07 14:25 52.30488 4.77400 -4 ft 4 kts 108°
2026-05-07 14:25 52.30547 4.77432 -4 ft 10 kts 40°
2026-05-07 14:26 52.30588 4.77522 -3 ft 10 kts 46°
2026-05-07 14:26 52.30657 4.77585 -3 ft 13 kts 15°
2026-05-07 14:26 52.30756 4.77603 -3 ft 16 kts
2026-05-07 14:26 52.30873 4.77609 -3 ft 18 kts
2026-05-07 14:27 52.30993 4.77619 -3 ft 17 kts
2026-05-07 14:27 52.31104 4.77627 -3 ft 16 kts
2026-05-07 14:27 52.31210 4.77636 -3 ft 15 kts
2026-05-07 14:27 52.31312 4.77646 -3 ft 14 kts
2026-05-07 14:28 52.31394 4.77649 -3 ft 10 kts
2026-05-07 14:28 52.31458 4.77624 -3 ft 10 kts 332°
2026-05-07 14:28 52.31512 4.77563 -3 ft 9 kts 321°
2026-05-07 14:28 52.31553 4.77485 -3 ft 9 kts 303°
2026-05-07 14:29 52.31575 4.77392 -4 ft 9 kts 282°
2026-05-07 14:29 52.31578 4.77293 -4 ft 9 kts 268°
2026-05-07 14:29 52.31574 4.77199 -4 ft 8 kts 266°
2026-05-07 14:29 52.31570 4.77106 -4 ft 8 kts 265°
2026-05-07 14:30 52.31566 4.77016 -4 ft 8 kts 267°
2026-05-07 14:30 52.31564 4.76930 -4 ft 8 kts 267°
2026-05-07 14:30 52.31561 4.76845 -4 ft 7 kts 264°
2026-05-07 14:30 52.31556 4.76763 -4 ft 7 kts 265°
2026-05-07 14:31 52.31553 4.76684 -4 ft 7 kts 267°
2026-05-07 14:31 52.31551 4.76598 -3 ft 9 kts 267°
2026-05-07 14:31 52.31547 4.76459 -3 ft 16 kts 267°
2026-05-07 14:31 52.31541 4.76249 -3 ft 20 kts 266°
2026-05-07 14:32 52.31532 4.75998 -3 ft 24 kts 266°
2026-05-07 14:32 52.31522 4.75700 -4 ft 28 kts 266°
2026-05-07 14:32 52.31513 4.75413 -4 ft 26 kts 267°
2026-05-07 14:32 52.31501 4.75096 -4 ft 30 kts 267°
2026-05-07 14:33 52.31492 4.74740 -3 ft 29 kts 268°
2026-05-07 14:33 52.31522 4.74665 -3 ft 9 kts 351°
2026-05-07 14:33 52.31554 4.74660 -3 ft 0 kts 357°
2026-05-07 14:37 52.31555 4.74660 -3 ft 0 kts 357°
2026-05-07 14:38 52.31588 4.74659 -1 ft 9 kts
2026-05-07 14:38 52.31667 4.74742 -1 ft 17 kts 65°
2026-05-07 14:38 52.31673 4.74802 -2 ft 13 kts 84°
2026-05-07 14:38 52.31697 4.75415 -7 ft 96 kts 86°
2026-05-07 14:39 52.31755 4.76893 0 ft 161 kts 81°
2026-05-07 14:39 52.31832 4.78940 355 ft 189 kts 83°
2026-05-07 14:39 52.31927 4.81066 1374 ft 186 kts 83°
2026-05-07 14:39 52.32032 4.83135 2392 ft 181 kts 84°
2026-05-07 14:40 52.32150 4.85248 2940 ft 200 kts 84°
2026-05-07 14:40 52.32292 4.87608 3462 ft 215 kts 83°
2026-05-07 14:40 52.32513 4.90044 4264 ft 215 kts 68°
2026-05-07 14:40 52.33378 4.91940 5151 ft 211 kts 36°
2026-05-07 14:41 52.34633 4.93206 5824 ft 215 kts 29°
2026-05-07 14:41 52.35969 4.94354 6062 ft 217 kts 28°
2026-05-07 14:41 52.37312 4.95478 6066 ft 217 kts 28°
2026-05-07 14:41 52.38660 4.96605 6068 ft 217 kts 28°
2026-05-07 14:42 52.40002 4.97734 6067 ft 217 kts 28°
2026-05-07 14:42 52.41347 4.98872 6082 ft 218 kts 28°
2026-05-07 14:42 52.42700 5.00020 6148 ft 221 kts 28°
2026-05-07 14:42 52.44071 5.01189 6684 ft 222 kts 28°
2026-05-07 14:43 52.45458 5.02375 7303 ft 225 kts 28°
2026-05-07 14:43 52.46849 5.03567 7934 ft 229 kts 27°
2026-05-07 14:43 52.48253 5.04772 8600 ft 229 kts 27°
2026-05-07 14:43 52.49679 5.05997 9220 ft 233 kts 27°
2026-05-07 14:44 52.51120 5.07238 9862 ft 234 kts 27°
2026-05-07 14:44 52.52571 5.08488 10440 ft 235 kts 27°
2026-05-07 14:44 52.54032 5.09748 10993 ft 238 kts 27°
2026-05-07 14:44 52.55513 5.11028 11553 ft 240 kts 27°
2026-05-07 14:45 52.56990 5.12305 12160 ft 241 kts 27°
2026-05-07 14:45 52.57976 5.13158 12533 ft 243 kts 27°
2026-05-07 14:45 52.59476 5.14457 13082 ft 245 kts 27°
2026-05-07 14:45 52.60995 5.15773 13675 ft 246 kts 27°
2026-05-07 14:46 52.62511 5.17087 14199 ft 247 kts 27°
2026-05-07 14:46 52.64046 5.18419 14669 ft 251 kts 27°
2026-05-07 14:46 52.65596 5.19766 15183 ft 252 kts 27°
2026-05-07 14:46 52.67146 5.21118 15711 ft 253 kts 29°
2026-05-07 14:47 52.68428 5.23078 16110 ft 257 kts 60°
2026-05-07 14:47 52.69230 5.25731 16573 ft 259 kts 65°
2026-05-07 14:47 52.69986 5.28429 17104 ft 260 kts 65°
2026-05-07 14:47 52.70749 5.31156 17550 ft 263 kts 65°
2026-05-07 14:48 52.71529 5.33907 18010 ft 266 kts 65°
2026-05-07 14:48 52.72320 5.36667 18511 ft 267 kts 64°
2026-05-07 14:48 52.73141 5.39506 18671 ft 282 kts 64°
2026-05-07 14:48 52.74014 5.42501 18790 ft 299 kts 64°
2026-05-07 14:49 52.74950 5.45695 18927 ft 318 kts 64°
2026-05-07 14:49 52.75945 5.49081 19075 ft 337 kts 64°
2026-05-07 14:49 52.77001 5.52664 19230 ft 355 kts 64°
2026-05-07 14:49 52.78109 5.56424 19363 ft 373 kts 64°
2026-05-07 14:50 52.79271 5.60362 19486 ft 390 kts 64°
2026-05-07 14:50 52.80484 5.64474 19648 ft 404 kts 64°
2026-05-07 14:50 52.81731 5.68708 19927 ft 414 kts 64°
2026-05-07 14:50 52.82999 5.73020 20354 ft 419 kts 64°
2026-05-07 14:51 52.84280 5.77380 20814 ft 424 kts 64°
2026-05-07 14:51 52.85572 5.81789 21354 ft 425 kts 64°
2026-05-07 14:51 52.86863 5.86201 21899 ft 428 kts 64°
2026-05-07 14:51 52.88162 5.90645 22424 ft 429 kts 64°
2026-05-07 14:52 52.89463 5.95109 22936 ft 432 kts 64°
2026-05-07 14:52 52.90776 5.99621 23346 ft 437 kts 64°
2026-05-07 14:52 52.92093 6.04155 23847 ft 438 kts 64°
2026-05-07 14:52 52.93418 6.08726 24242 ft 441 kts 64°
2026-05-07 14:53 52.94750 6.13330 24553 ft 446 kts 64°
2026-05-07 14:53 52.96094 6.17984 24913 ft 448 kts 65°
2026-05-07 14:53 52.97434 6.22634 25464 ft 447 kts 65°
2026-05-07 14:53 52.98782 6.27319 25768 ft 452 kts 64°
2026-05-07 14:54 53.00122 6.31986 26185 ft 452 kts 65°
2026-05-07 14:54 53.01470 6.36694 26838 ft 447 kts 65°
2026-05-07 14:54 53.02799 6.41342 27524 ft 443 kts 65°
2026-05-07 14:54 53.04119 6.45967 28029 ft 443 kts 65°
2026-05-07 14:55 53.05438 6.50599 28554 ft 442 kts 65°
2026-05-07 14:55 53.06747 6.55202 29097 ft 440 kts 65°
2026-05-07 14:55 53.08041 6.59768 30032 ft 426 kts 65°
2026-05-07 14:55 53.09282 6.64146 30891 ft 418 kts 65°
2026-05-07 14:56 53.10529 6.68558 31098 ft 422 kts 65°
2026-05-07 14:56 53.11788 6.73022 31069 ft 430 kts 65°
2026-05-07 14:56 53.14350 6.82138 31083 ft 437 kts 65°
2026-05-07 14:57 53.16914 6.91287 31076 ft 435 kts 65°
2026-05-07 14:57 53.19463 7.00425 31074 ft 434 kts 65°
2026-05-07 14:58 53.21998 7.09546 31076 ft 433 kts 65°
2026-05-07 14:58 53.24508 7.18612 31072 ft 432 kts 65°
2026-05-07 14:59 53.27032 7.27763 31079 ft 437 kts 65°
2026-05-07 14:59 53.29590 7.37075 31082 ft 443 kts 65°
2026-05-07 15:00 53.32154 7.46449 31077 ft 444 kts 65°
2026-05-07 15:00 53.34720 7.55867 31077 ft 444 kts 65°
2026-05-07 15:01 53.37271 7.65271 31077 ft 442 kts 66°
2026-05-07 15:01 53.39813 7.74676 31089 ft 443 kts 65°
2026-05-07 15:02 53.42354 7.84120 31071 ft 444 kts 66°
2026-05-07 15:02 53.44882 7.93554 31079 ft 443 kts 66°
2026-05-07 15:03 53.47381 8.02916 31083 ft 441 kts 66°
2026-05-07 15:03 53.48619 8.07568 30904 ft 431 kts 66°
2026-05-07 15:03 53.49836 8.12152 30302 ft 429 kts 66°
2026-05-07 15:04 53.51055 8.16750 29298 ft 434 kts 66°
2026-05-07 15:04 53.52290 8.21420 28306 ft 439 kts 66°
2026-05-07 15:04 53.53525 8.26100 27547 ft 437 kts 66°
2026-05-07 15:04 53.54753 8.30765 26817 ft 436 kts 66°
2026-05-07 15:05 53.55978 8.35424 26095 ft 435 kts 66°
2026-05-07 15:05 53.57196 8.40069 25399 ft 433 kts 66°
2026-05-07 15:05 53.58409 8.44701 24722 ft 432 kts 66°
2026-05-07 15:05 53.59619 8.49333 23981 ft 432 kts 66°
2026-05-07 15:06 53.60762 8.54019 23045 ft 432 kts 73°
2026-05-07 15:06 53.61210 8.58959 22072 ft 424 kts 92°
2026-05-07 15:06 53.60789 8.63811 21177 ft 416 kts 106°
2026-05-07 15:06 53.59790 8.68337 20291 ft 408 kts 113°
2026-05-07 15:07 53.58693 8.72712 19421 ft 402 kts 113°
2026-05-07 15:07 53.57618 8.77037 18590 ft 397 kts 112°
2026-05-07 15:07 53.56576 8.81272 18080 ft 383 kts 112°
2026-05-07 15:07 53.55578 8.85360 17282 ft 376 kts 112°
2026-05-07 15:08 53.54596 8.89401 16511 ft 371 kts 112°
2026-05-07 15:08 53.53628 8.93389 15743 ft 366 kts 112°
2026-05-07 15:08 53.52673 8.97327 15006 ft 361 kts 112°
2026-05-07 15:08 53.51729 9.01212 14267 ft 357 kts 112°
2026-05-07 15:09 53.50795 9.05053 13513 ft 353 kts 112°
2026-05-07 15:09 53.49871 9.08841 12710 ft 349 kts 112°
2026-05-07 15:09 53.48956 9.12590 11939 ft 345 kts 112°
2026-05-07 15:09 53.48051 9.16292 11179 ft 341 kts 112°
2026-05-07 15:10 53.47153 9.19959 10435 ft 337 kts 112°
2026-05-07 15:10 53.46265 9.23579 9687 ft 334 kts 112°
2026-05-07 15:10 53.45386 9.27155 8888 ft 330 kts 112°
2026-05-07 15:10 53.44526 9.30649 8115 ft 326 kts 112°
2026-05-07 15:11 53.43655 9.34179 7342 ft 321 kts 111°
2026-05-07 15:11 53.42818 9.37577 6615 ft 317 kts 110°
2026-05-07 15:11 53.41976 9.40983 5834 ft 313 kts 111°
2026-05-07 15:11 53.41146 9.44334 5055 ft 310 kts 111°
2026-05-07 15:12 53.40368 9.47677 4271 ft 305 kts 103°
2026-05-07 15:12 53.40286 9.51163 3547 ft 299 kts 77°
2026-05-07 15:12 53.41026 9.54287 3327 ft 281 kts 57°
2026-05-07 15:12 53.42195 9.56789 3162 ft 263 kts 51°
2026-05-07 15:13 53.43327 9.59068 3006 ft 245 kts 51°
2026-05-07 15:13 53.44377 9.61177 2977 ft 225 kts 51°
2026-05-07 15:13 53.45342 9.63113 2968 ft 207 kts 51°
2026-05-07 15:13 53.46237 9.64888 2981 ft 195 kts 49°
2026-05-07 15:14 53.47148 9.66562 2979 ft 193 kts 50°
2026-05-07 15:14 53.48025 9.68255 2996 ft 188 kts 51°
2026-05-07 15:14 53.48846 9.69898 2999 ft 179 kts 51°
2026-05-07 15:14 53.49638 9.71506 3003 ft 177 kts 51°
2026-05-07 15:15 53.50429 9.73122 3027 ft 187 kts 52°
2026-05-07 15:15 53.51324 9.74953 3046 ft 212 kts 52°
2026-05-07 15:15 53.52239 9.76820 2984 ft 197 kts 51°
2026-05-07 15:15 53.53076 9.78525 2800 ft 181 kts 52°
2026-05-07 15:16 53.53829 9.80061 2576 ft 164 kts 52°
2026-05-07 15:16 53.54521 9.81474 2375 ft 149 kts 51°
2026-05-07 15:16 53.55156 9.82769 2211 ft 143 kts 53°
2026-05-07 15:16 53.55779 9.84041 2005 ft 139 kts 51°
2026-05-07 15:17 53.56387 9.85281 1814 ft 135 kts 52°
2026-05-07 15:17 53.56987 9.86506 1622 ft 138 kts 52°
2026-05-07 15:17 53.57599 9.87752 1428 ft 137 kts 52°
2026-05-07 15:17 53.58204 9.88981 1239 ft 138 kts 52°
2026-05-07 15:18 53.58806 9.90224 999 ft 134 kts 51°
2026-05-07 15:18 53.59365 9.91401 831 ft 125 kts 51°
2026-05-07 15:18 53.59948 9.92586 639 ft 136 kts 50°
2026-05-07 15:18 53.60535 9.93800 469 ft 134 kts 52°
2026-05-07 15:19 53.61151 9.95014 330 ft 138 kts 50°
2026-05-07 15:19 53.61762 9.96258 166 ft 139 kts 49°
2026-05-07 15:19 53.62366 9.97458 45 ft 122 kts 50°
2026-05-07 15:19 53.62821 9.98387 44 ft 76 kts 50°
2026-05-07 15:20 53.63035 9.98824 42 ft 31 kts 51°
2026-05-07 15:20 53.63092 9.99124 44 ft 25 kts 89°
2026-05-07 15:20 53.63089 9.99203 43 ft 0 kts 94°
2026-05-07 15:22 53.63089 9.99206 43 ft 2 kts 94°
2026-05-07 15:22 53.63089 9.99226 43 ft 0 kts 93°
2026-05-07 15:23 53.63089 9.99229 43 ft 1 kts 94°
2026-05-07 15:23 53.63086 9.99292 43 ft 11 kts 91°
2026-05-07 15:23 53.63089 9.99352 44 ft 0 kts 78°
2026-05-07 15:23 53.63089 9.99353 44 ft 0 kts 78°
2026-05-07 15:24 53.63121 9.99455 43 ft 19 kts 54°
2026-05-07 15:24 53.63214 9.99656 44 ft 21 kts 47°
2026-05-07 15:24 53.63318 9.99845 44 ft 23 kts 49°
2026-05-07 15:24 53.63402 10.00008 45 ft 16 kts 51°
2026-05-07 15:25 53.63418 10.00148 45 ft 11 kts 118°
2026-05-07 15:25 53.63395 10.00209 45 ft 2 kts 128°
2026-05-07 15:25 53.63364 10.00239 45 ft 3 kts 166°
2026-05-07 15:25 53.63352 10.00264 45 ft 5 kts 115°
2026-05-07 15:26 53.63355 10.00327 45 ft 0 kts 55°
2026-05-07 15:26 53.63358 10.00347 44 ft 3 kts 87°
2026-05-07 15:26 53.63359 10.00366 43 ft 0 kts 87°